Weather History for Salem, OR

Change the Weather History Date:

Thursday, August 2, 2012

  Actual Average Record
Temperature  
Mean Temperature 67 °F 69 °F  
Max Temperature 81 °F 84 °F 102 °F (1939)
Min Temperature 52 °F 54 °F 40 °F (1920)
Degree Days  
Heating Degree Days 0 0  
Month to date heating degree days 0 0  
Since 1 June heating degree days 184 160  
Since 1 July heating degree days 25 30  
Cooling Degree Days 2 4  
Month to date cooling degree days 4 8  
Year to date cooling degree days 114 154  
Since 1 June cooling degree days 110 145  
Growing Degree Days 16 (Base 50)    
Moisture  
Dew Point 52 °F    
Average Humidity 65    
Maximum Humidity 96    
Minimum Humidity 33    
Precipitation  
Precipitation T in 0.01 in 0.20 in (1996)
Month to date precipitation T 0.02  
Year to date precipitation 32.10 21.57  
Snow  
Snow 0.00 in - - ()
Month to date snowfall 0.0  
Since 1 June snowfall 0.0  
Snow Depth 0.00 in    
Sea Level Pressure  
Sea Level Pressure 30.12 in    
Wind  
Wind Speed 7 mph (North)    
Max Wind Speed 15 mph    
Max Gust Speed 24 mph    
Visibility 10 miles    
Events      
T = Trace of Precipitation, MM = Missing Value Source: NWS Daily Summary

Daily Weather History Graph

Daily Weather History Graph

Search for Another Location

Airport:

Trip Planner

Search our weather history database for the weather conditions in past years. The results will help you decide how hot, cold, wet, or windy it might be!

Date:

Astronomy

Aug. 02, 2012 Rise Set
Actual Time 5:59 AM PDT 8:36 PM PDT
Civil Twilight 5:25 AM PDT 9:09 PM PDT
Nautical Twilight 4:43 AM PDT 9:51 PM PDT
Astronomical Twilight 3:55 AM PDT 10:39 PM PDT
Moon 8:39 PM PDT (8/2) 6:47 AM PDT (8/2)
Length of Visible Light 15h 43m
Length of Day
14h 36m
Waxing Gibbous, 99% of the Moon is Illuminated
Aug 2
Waxing Gibbous
Aug 9
Last Quarter
Aug 17
New
Aug 24
First Quarter
Aug 31
Full

Hourly Weather History & Observations

Time (PDT) Temp. Dew Point Humidity Pressure Visibility Wind Dir Wind Speed Gust Speed Precip Events Conditions
12:56 AM 60.1 °F 53.1 °F 78% 30.15 in 10.0 mi NNW 3.5 mph - N/A   Clear
1:56 AM 57.0 °F 52.0 °F 83% 30.14 in 10.0 mi North 3.5 mph - N/A   Clear
2:56 AM 55.9 °F 51.1 °F 84% 30.15 in 10.0 mi Calm Calm - N/A   Clear
3:56 AM 54.0 °F 51.1 °F 90% 30.16 in 10.0 mi NNW 6.9 mph - N/A   Clear
4:56 AM 54.0 °F 51.1 °F 90% 30.16 in 10.0 mi North 3.5 mph - N/A   Clear
5:56 AM 52.0 °F 50.0 °F 93% 30.17 in 10.0 mi NNW 4.6 mph - N/A   Clear
8:56 AM 61.0 °F 52.0 °F 72% 30.19 in 10.0 mi North 8.1 mph - N/A   Partly Cloudy
9:56 AM 64.0 °F 52.0 °F 65% 30.18 in 10.0 mi NNE 5.8 mph - N/A   Clear
10:56 AM 69.1 °F 52.0 °F 54% 30.17 in 10.0 mi NNW 6.9 mph - N/A   Clear
11:56 AM 70.0 °F 51.1 °F 51% 30.16 in 10.0 mi North 8.1 mph - N/A   Clear
12:56 PM 73.0 °F 51.1 °F 46% 30.14 in 10.0 mi Variable 4.6 mph - N/A   Clear
1:56 PM 75.9 °F 50.0 °F 40% 30.13 in 10.0 mi North 8.1 mph - N/A   Clear
2:56 PM 78.1 °F 48.9 °F 36% 30.11 in 10.0 mi NE 10.4 mph 17.3 mph 0.00 in   Clear
3:56 PM 80.1 °F 48.0 °F 32% 30.09 in 10.0 mi NNE 12.7 mph 17.3 mph N/A   Clear
4:56 PM 81.0 °F 48.0 °F 31% 30.07 in 10.0 mi NNE 12.7 mph 18.4 mph N/A   Clear
5:56 PM 80.1 °F 52.0 °F 38% 30.05 in 10.0 mi North 12.7 mph - N/A   Clear
6:56 PM 78.1 °F 55.0 °F 45% 30.04 in 10.0 mi North 12.7 mph 17.3 mph N/A   Clear
7:56 PM 75.0 °F 55.9 °F 51% 30.04 in 10.0 mi North 12.7 mph - N/A   Clear
8:56 PM 70.0 °F 57.0 °F 63% 30.05 in 10.0 mi North 12.7 mph - N/A   Clear
9:56 PM 68.0 °F 57.0 °F 68% 30.06 in 10.0 mi North 8.1 mph - N/A   Mostly Cloudy
10:56 PM 64.9 °F 57.0 °F 75% 30.06 in 10.0 mi NNW 8.1 mph - N/A   Scattered Clouds